AAL2883 KIND-KCLT

Flight info

Callsign AAL2883
Flight time 1h 0m
Altitude 31000
Route DAWNN1 IIU TAFTT PARQR4
Aircraft A320/M-SDE3FGHIRWY/LB1

Departure

Time 2026-05-06 01:58
Airport Indianapolis International Airport (KIND)

Arrival

Time 2026-05-06 02:59
Airport Charlotte Douglas International Airport (KCLT)
Time Latitude Longitude Altitude Speed Heading
2026-05-06 01:46 39.71455 -86.29491 788 ft 0 kts 327°
2026-05-06 01:51 39.71450 -86.29486 785 ft 2 kts 325°
2026-05-06 01:52 39.71444 -86.29480 785 ft 0 kts 323°
2026-05-06 01:52 39.71439 -86.29476 784 ft 2 kts 311°
2026-05-06 01:52 39.71428 -86.29458 784 ft 3 kts 294°
2026-05-06 01:52 39.71422 -86.29432 784 ft 3 kts 254°
2026-05-06 01:53 39.71425 -86.29421 784 ft 0 kts 230°
2026-05-06 01:54 39.71405 -86.29452 783 ft 12 kts 229°
2026-05-06 01:54 39.71299 -86.29447 781 ft 21 kts 137°
2026-05-06 01:54 39.71182 -86.29384 781 ft 20 kts 180°
2026-05-06 01:55 39.71048 -86.29442 780 ft 23 kts 218°
2026-05-06 01:55 39.70927 -86.29591 782 ft 25 kts 223°
2026-05-06 01:55 39.70794 -86.29756 783 ft 29 kts 224°
2026-05-06 01:55 39.70647 -86.29946 785 ft 29 kts 224°
2026-05-06 01:56 39.70505 -86.30124 783 ft 25 kts 224°
2026-05-06 01:56 39.70374 -86.30299 782 ft 28 kts 225°
2026-05-06 01:56 39.70227 -86.30484 782 ft 31 kts 223°
2026-05-06 01:56 39.70116 -86.30541 783 ft 14 kts 150°
2026-05-06 01:57 39.70096 -86.30521 783 ft 7 kts 139°
2026-05-06 01:57 39.70047 -86.30420 784 ft 16 kts 78°
2026-05-06 01:57 39.70064 -86.30390 783 ft 0 kts 45°
2026-05-06 01:57 39.70224 -86.30189 781 ft 69 kts 44°
2026-05-06 01:58 39.70722 -86.29556 783 ft 128 kts 44°
2026-05-06 01:58 39.71449 -86.28644 1021 ft 150 kts 43°
2026-05-06 01:58 39.72179 -86.27683 1702 ft 149 kts 43°
2026-05-06 01:58 39.72904 -86.26727 2369 ft 148 kts 42°
2026-05-06 01:59 39.73661 -86.25737 2860 ft 164 kts 41°
2026-05-06 01:59 39.74528 -86.24612 3252 ft 188 kts 42°
2026-05-06 01:59 39.75303 -86.23117 3591 ft 218 kts 71°
2026-05-06 01:59 39.75219 -86.21044 3999 ft 250 kts 112°
2026-05-06 02:00 39.74053 -86.19267 4515 ft 271 kts 152°
2026-05-06 02:00 39.72297 -86.18384 5425 ft 272 kts 166°
2026-05-06 02:00 39.70489 -86.17676 6479 ft 271 kts 167°
2026-05-06 02:00 39.68675 -86.16966 7418 ft 273 kts 169°
2026-05-06 02:01 39.66842 -86.16254 8313 ft 277 kts 170°
2026-05-06 02:01 39.64982 -86.15537 9201 ft 281 kts 171°
2026-05-06 02:01 39.63089 -86.14809 10038 ft 285 kts 172°
2026-05-06 02:01 39.61131 -86.14067 10461 ft 305 kts 172°
2026-05-06 02:02 39.59026 -86.13280 10862 ft 321 kts 171°
2026-05-06 02:02 39.56864 -86.12461 11540 ft 327 kts 171°
2026-05-06 02:02 39.54674 -86.11620 12297 ft 331 kts 171°
2026-05-06 02:02 39.53176 -86.11044 12796 ft 333 kts 172°
2026-05-06 02:03 39.50943 -86.10185 13539 ft 337 kts 171°
2026-05-06 02:03 39.48682 -86.09317 14178 ft 341 kts 171°
2026-05-06 02:03 39.46392 -86.08443 14804 ft 346 kts 171°
2026-05-06 02:03 39.44101 -86.07571 15433 ft 350 kts 171°
2026-05-06 02:04 39.41751 -86.06679 16062 ft 354 kts 171°
2026-05-06 02:04 39.39347 -86.05769 16702 ft 358 kts 171°
2026-05-06 02:04 39.36946 -86.04860 17326 ft 362 kts 171°
2026-05-06 02:04 39.34547 -86.03951 17947 ft 366 kts 171°
2026-05-06 02:05 39.32083 -86.03018 18529 ft 370 kts 171°
2026-05-06 02:05 39.29601 -86.02078 19105 ft 374 kts 172°
2026-05-06 02:05 39.27096 -86.01132 19673 ft 377 kts 172°
2026-05-06 02:05 39.24566 -86.00179 20263 ft 380 kts 172°
2026-05-06 02:06 39.22011 -85.99215 20840 ft 384 kts 173°
2026-05-06 02:06 39.19440 -85.98241 21412 ft 387 kts 173°
2026-05-06 02:06 39.16846 -85.97260 21975 ft 390 kts 173°
2026-05-06 02:06 39.14229 -85.96272 22536 ft 393 kts 173°
2026-05-06 02:07 39.11590 -85.95279 23099 ft 397 kts 174°
2026-05-06 02:07 39.08931 -85.94281 23624 ft 400 kts 174°
2026-05-06 02:07 39.06240 -85.93275 24047 ft 405 kts 174°
2026-05-06 02:07 39.03522 -85.92259 24427 ft 409 kts 174°
2026-05-06 02:08 39.00777 -85.91233 24852 ft 412 kts 174°
2026-05-06 02:08 38.98013 -85.90200 25248 ft 417 kts 174°
2026-05-06 02:08 38.95212 -85.89154 25636 ft 421 kts 174°
2026-05-06 02:08 38.92383 -85.88096 26019 ft 426 kts 174°
2026-05-06 02:09 38.89526 -85.87027 26401 ft 430 kts 174°
2026-05-06 02:09 38.86640 -85.85944 26779 ft 434 kts 174°
2026-05-06 02:09 38.83726 -85.84851 27141 ft 438 kts 174°
2026-05-06 02:09 38.80781 -85.83751 27484 ft 442 kts 174°
2026-05-06 02:10 38.77812 -85.82649 27848 ft 446 kts 174°
2026-05-06 02:10 38.74821 -85.81538 28203 ft 450 kts 174°
2026-05-06 02:10 38.71803 -85.80414 28556 ft 454 kts 174°
2026-05-06 02:10 38.68793 -85.79291 28889 ft 458 kts 174°
2026-05-06 02:11 38.65718 -85.78145 29235 ft 462 kts 174°
2026-05-06 02:11 38.62621 -85.76992 29583 ft 466 kts 174°
2026-05-06 02:11 38.59494 -85.75831 29922 ft 470 kts 174°
2026-05-06 02:11 38.56350 -85.74668 30178 ft 473 kts 174°
2026-05-06 02:12 38.53185 -85.73497 30508 ft 475 kts 174°
2026-05-06 02:12 38.49999 -85.72319 30757 ft 477 kts 174°
2026-05-06 02:12 38.43781 -85.69989 30822 ft 451 kts 174°
2026-05-06 02:13 38.37828 -85.67768 30824 ft 443 kts 175°
2026-05-06 02:13 38.31923 -85.65625 30822 ft 441 kts 175°
2026-05-06 02:14 38.26020 -85.63489 30849 ft 441 kts 175°
2026-05-06 02:14 38.19760 -85.61188 30852 ft 441 kts 175°
2026-05-06 02:15 38.16834 -85.59902 30849 ft 453 kts 165°
2026-05-06 02:15 38.14063 -85.57860 30847 ft 469 kts 152°
2026-05-06 02:15 38.11621 -85.55019 30840 ft 484 kts 137°
2026-05-06 02:15 38.09684 -85.51474 30811 ft 494 kts 122°
2026-05-06 02:16 38.08382 -85.47418 30814 ft 500 kts 107°
2026-05-06 02:16 38.07543 -85.43129 30819 ft 504 kts 105°
2026-05-06 02:16 38.06701 -85.38753 30838 ft 516 kts 105°
2026-05-06 02:16 38.05833 -85.34283 30831 ft 528 kts 105°
2026-05-06 02:17 38.04047 -85.25144 30828 ft 537 kts 105°
2026-05-06 02:17 38.02250 -85.15947 30831 ft 538 kts 105°
2026-05-06 02:18 38.00447 -85.06739 30834 ft 538 kts 105°
2026-05-06 02:18 37.98641 -84.97553 30838 ft 536 kts 105°
2026-05-06 02:19 37.96841 -84.88444 30835 ft 536 kts 105°
2026-05-06 02:19 37.95027 -84.79284 30841 ft 536 kts 105°
2026-05-06 02:20 37.92270 -84.65553 30851 ft 536 kts 105°
2026-05-06 02:21 37.90439 -84.56417 30853 ft 536 kts 105°
2026-05-06 02:21 37.88597 -84.47255 30832 ft 537 kts 105°
2026-05-06 02:22 37.86732 -84.38082 30833 ft 539 kts 105°
2026-05-06 02:22 37.84860 -84.28895 30855 ft 540 kts 105°
2026-05-06 02:23 37.82986 -84.19706 30876 ft 539 kts 105°
2026-05-06 02:23 37.81110 -84.10531 30878 ft 539 kts 105°
2026-05-06 02:24 37.79220 -84.01360 30864 ft 539 kts 105°
2026-05-06 02:24 37.77318 -83.92210 30870 ft 538 kts 105°
2026-05-06 02:25 37.75420 -83.83064 30880 ft 538 kts 105°
2026-05-06 02:25 37.73516 -83.73936 30889 ft 537 kts 105°
2026-05-06 02:26 37.71605 -83.64814 30886 ft 537 kts 105°
2026-05-06 02:26 37.69692 -83.55715 30886 ft 536 kts 105°
2026-05-06 02:27 37.67766 -83.46628 30892 ft 535 kts 105°
2026-05-06 02:27 37.65837 -83.37555 30916 ft 535 kts 105°
2026-05-06 02:28 37.63907 -83.28498 30914 ft 534 kts 105°
2026-05-06 02:28 37.61975 -83.19451 30909 ft 534 kts 105°
2026-05-06 02:29 37.60037 -83.10411 30906 ft 534 kts 106°
2026-05-06 02:29 37.58101 -83.01431 30897 ft 534 kts 106°
2026-05-06 02:30 37.56129 -82.92350 30891 ft 534 kts 106°
2026-05-06 02:30 37.53285 -82.83866 30898 ft 527 kts 126°
2026-05-06 02:31 37.48583 -82.76957 30877 ft 517 kts 141°
2026-05-06 02:31 37.43426 -82.70630 30867 ft 519 kts 141°
2026-05-06 02:32 37.38251 -82.64279 30876 ft 520 kts 141°
2026-05-06 02:32 37.33064 -82.57921 30869 ft 521 kts 141°
2026-05-06 02:33 37.27870 -82.51560 30874 ft 521 kts 141°
2026-05-06 02:33 37.26997 -82.50489 30873 ft 521 kts 140°
2026-05-06 02:34 37.18323 -82.39903 30865 ft 521 kts 140°
2026-05-06 02:34 37.13115 -82.33585 30867 ft 521 kts 140°
2026-05-06 02:35 37.07943 -82.27323 30877 ft 520 kts 140°
2026-05-06 02:35 37.02520 -82.21419 30892 ft 511 kts 153°
2026-05-06 02:36 36.96390 -82.17049 30879 ft 507 kts 157°
2026-05-06 02:36 36.90223 -82.12776 30915 ft 507 kts 157°
2026-05-06 02:37 36.84053 -82.08501 30953 ft 507 kts 157°
2026-05-06 02:37 36.77864 -82.04257 30975 ft 507 kts 158°
2026-05-06 02:38 36.71662 -82.00022 30068 ft 513 kts 157°
2026-05-06 02:38 36.68526 -81.97880 29201 ft 511 kts 157°
2026-05-06 02:38 36.65431 -81.95753 28622 ft 505 kts 157°
2026-05-06 02:38 36.62359 -81.93643 28359 ft 503 kts 156°
2026-05-06 02:39 36.59301 -81.91550 27903 ft 500 kts 157°
2026-05-06 02:39 36.56263 -81.89474 27380 ft 495 kts 157°
2026-05-06 02:39 36.53258 -81.87427 26845 ft 490 kts 157°
2026-05-06 02:39 36.50282 -81.85400 26316 ft 485 kts 157°
2026-05-06 02:40 36.47339 -81.83404 25808 ft 480 kts 157°
2026-05-06 02:40 36.44420 -81.81425 25322 ft 474 kts 156°
2026-05-06 02:40 36.41539 -81.79471 24825 ft 470 kts 156°
2026-05-06 02:40 36.38686 -81.77537 24294 ft 465 kts 156°
2026-05-06 02:41 36.35861 -81.75623 23783 ft 459 kts 156°
2026-05-06 02:41 36.33070 -81.73737 23214 ft 454 kts 156°
2026-05-06 02:41 36.30346 -81.71899 22706 ft 450 kts 156°
2026-05-06 02:41 36.27612 -81.70055 22181 ft 445 kts 156°
2026-05-06 02:42 36.24905 -81.68231 21667 ft 441 kts 156°
2026-05-06 02:42 36.22193 -81.66398 21142 ft 436 kts 156°
2026-05-06 02:42 36.19579 -81.64636 20616 ft 432 kts 156°
2026-05-06 02:42 36.16949 -81.62863 20113 ft 429 kts 156°
2026-05-06 02:43 36.14335 -81.61101 19594 ft 426 kts 156°
2026-05-06 02:43 36.11737 -81.59351 19070 ft 424 kts 156°
2026-05-06 02:43 36.09154 -81.57614 18546 ft 422 kts 156°
2026-05-06 02:43 36.06596 -81.55894 18135 ft 415 kts 156°
2026-05-06 02:44 36.04054 -81.54187 17546 ft 413 kts 156°
2026-05-06 02:44 36.01555 -81.52509 16932 ft 409 kts 156°
2026-05-06 02:44 35.99056 -81.50838 16389 ft 406 kts 156°
2026-05-06 02:44 35.96594 -81.49191 15879 ft 400 kts 156°
2026-05-06 02:45 35.94158 -81.47562 15363 ft 396 kts 156°
2026-05-06 02:45 35.91742 -81.45950 14869 ft 393 kts 155°
2026-05-06 02:45 35.89337 -81.44350 14370 ft 391 kts 155°
2026-05-06 02:45 35.86949 -81.42760 13870 ft 389 kts 156°
2026-05-06 02:46 35.84580 -81.41182 13383 ft 385 kts 156°
2026-05-06 02:46 35.82248 -81.39627 13086 ft 374 kts 156°
2026-05-06 02:46 35.80019 -81.38137 12947 ft 352 kts 156°
2026-05-06 02:46 35.77951 -81.36748 12482 ft 338 kts 156°
2026-05-06 02:47 35.75890 -81.35335 11787 ft 333 kts 155°
2026-05-06 02:47 35.73916 -81.33947 11145 ft 329 kts 155°
2026-05-06 02:47 35.71950 -81.32544 10808 ft 327 kts 155°
2026-05-06 02:47 35.69989 -81.31133 10624 ft 326 kts 155°
2026-05-06 02:48 35.68033 -81.29718 10422 ft 324 kts 154°
2026-05-06 02:48 35.66288 -81.28048 10121 ft 317 kts 135°
2026-05-06 02:48 35.65105 -81.25788 9957 ft 320 kts 115°
2026-05-06 02:48 35.64560 -81.23139 9750 ft 322 kts 94°
2026-05-06 02:49 35.64662 -81.20397 9548 ft 321 kts 85°
2026-05-06 02:49 35.64868 -81.17666 9341 ft 320 kts 85°
2026-05-06 02:49 35.65079 -81.14948 9133 ft 319 kts 84°
2026-05-06 02:49 35.65306 -81.12245 8927 ft 317 kts 85°
2026-05-06 02:50 35.65536 -81.09553 8726 ft 316 kts 85°
2026-05-06 02:50 35.65764 -81.06869 8527 ft 315 kts 85°
2026-05-06 02:50 35.65710 -81.04211 8323 ft 308 kts 108°
2026-05-06 02:50 35.64778 -81.01929 8104 ft 295 kts 136°
2026-05-06 02:51 35.63219 -81.00404 7894 ft 282 kts 157°
2026-05-06 02:51 35.61493 -80.99280 7665 ft 278 kts 162°
2026-05-06 02:51 35.59694 -80.98570 7447 ft 266 kts 175°
2026-05-06 02:51 35.57893 -80.98349 7160 ft 255 kts 181°
2026-05-06 02:52 35.56127 -80.98201 6876 ft 254 kts 181°
2026-05-06 02:52 35.54375 -80.98051 6583 ft 252 kts 181°
2026-05-06 02:52 35.52642 -80.97901 6395 ft 245 kts 181°
2026-05-06 02:52 35.50955 -80.97754 6145 ft 242 kts 181°
2026-05-06 02:53 35.49287 -80.97610 5840 ft 239 kts 180°
2026-05-06 02:53 35.47651 -80.97468 5531 ft 232 kts 180°
2026-05-06 02:53 35.46079 -80.97331 5236 ft 226 kts 180°
2026-05-06 02:53 35.44529 -80.97197 4945 ft 220 kts 179°
2026-05-06 02:54 35.43048 -80.97068 4658 ft 207 kts 180°
2026-05-06 02:54 35.41650 -80.96947 4396 ft 196 kts 180°
2026-05-06 02:54 35.40314 -80.96832 4141 ft 190 kts 180°
2026-05-06 02:54 35.38995 -80.96719 3892 ft 189 kts 180°
2026-05-06 02:55 35.37704 -80.96607 3649 ft 180 kts 180°
2026-05-06 02:55 35.36492 -80.96501 3444 ft 171 kts 180°
2026-05-06 02:55 35.35319 -80.96401 3203 ft 167 kts 180°
2026-05-06 02:55 35.34158 -80.96301 2981 ft 167 kts 179°
2026-05-06 02:56 35.32994 -80.96201 2767 ft 167 kts 179°
2026-05-06 02:56 35.31883 -80.96104 2552 ft 153 kts 179°
2026-05-06 02:56 35.30868 -80.96016 2358 ft 140 kts 178°
2026-05-06 02:56 35.29921 -80.95935 2204 ft 135 kts 178°
2026-05-06 02:57 35.28986 -80.95855 2021 ft 132 kts 179°
2026-05-06 02:57 35.28080 -80.95777 1844 ft 127 kts 180°
2026-05-06 02:57 35.27221 -80.95702 1680 ft 122 kts 177°
2026-05-06 02:57 35.26361 -80.95629 1505 ft 127 kts 175°
2026-05-06 02:58 35.25475 -80.95553 1323 ft 130 kts 177°
2026-05-06 02:58 35.24573 -80.95475 1160 ft 129 kts 175°
2026-05-06 02:58 35.23683 -80.95398 993 ft 130 kts 176°
2026-05-06 02:58 35.22780 -80.95321 811 ft 130 kts 175°
2026-05-06 02:59 35.21922 -80.95242 741 ft 108 kts 175°
2026-05-06 02:59 35.21411 -80.95201 738 ft 34 kts 176°
2026-05-06 02:59 35.21226 -80.95104 735 ft 26 kts 143°
2026-05-06 02:59 35.21196 -80.94994 733 ft 16 kts 36°
2026-05-06 03:00 35.21316 -80.94996 733 ft 19 kts 355°
2026-05-06 03:00 35.21454 -80.95010 733 ft 21 kts 355°
2026-05-06 03:00 35.21582 -80.95007 733 ft 17 kts 30°
2026-05-06 03:00 35.21683 -80.94937 733 ft 19 kts 357°
2026-05-06 03:01 35.21808 -80.94939 733 ft 17 kts 17°
2026-05-06 03:01 35.21911 -80.94876 733 ft 13 kts 25°
2026-05-06 03:01 35.21964 -80.94843 733 ft 2 kts 29°
2026-05-06 03:01 35.21967 -80.94841 733 ft 0 kts 29°